This demonstration page uses our WeatherBlox Daily Observations layout. Learn more.

Left ArrowRight Arrow

39.29038, -76.61219

Hourly Observations for June 29, 2022

Temp ( °F °C ) Dew Point ( °F °C ) Humidity (%) Winds ( mph kmh ) Pressure ( in mb ) Visibility ( mi km ) Precip ( " mm )
12:54 am 00:54 Mostly Cloudy 63 17.2 56 13.3 78 78 Calm 30.21 1023 10 16 0.00 0.00
1:54 am 01:54 Mostly Cloudy 64 17.8 57 13.9 78 78 Calm 30.21 1023 10 16 0.00 0.00
2:54 am 02:54 Mostly Cloudy 65 18.3 57 13.9 76 76 Calm 30.22 1023 10 16 0.00 0.00
3:54 am 03:54 Mostly Cloudy 62 16.7 57 13.9 84 84 Calm 30.22 1023 10 16 0.00 0.00
4:54 am 04:54 Mostly Clear 61 16.1 57 13.9 87 87 Calm 30.22 1023 10 16 0.00 0.00
5:54 am 05:54 Mostly Sunny 60 15.6 56 13.3 86 86 Calm 30.23 1024 10 16 0.00 0.00
6:54 am 06:54 Mostly Sunny 64 17.8 58 14.4 81 81 Calm 30.23 1024 10 16 0.00 0.00
7:54 am 07:54 Mostly Sunny 71 21.7 60 15.6 68 68 SW 3 6 30.24 1024 10 16 0.00 0.00
8:54 am 08:54 Mostly Sunny 76 24.4 58 14.4 54 54 VRB 3 6 30.24 1024 10 16 0.00 0.00
9:54 am 09:54 Mostly Sunny 79 26.1 58 14.4 49 49 S 6 9 30.23 1024 10 16 0.00 0.00
10:54 am 10:54 Mostly Sunny 81 27.2 58 14.4 45 45 SW 8 13 30.24 1024 10 16 0.00 0.00
11:54 am 11:54 Mostly Sunny 83 28.3 58 14.4 43 43 S 5 7 30.23 1024 10 16 0.00 0.00
12:54 pm 12:54 Mostly Sunny 86 30 59 15 40 40 S 9 15 30.21 1023 10 16 0.00 0.00
1:54 pm 13:54 Mostly Sunny 88 31.1 59 15 38 38 WSW 10 17 30.19 1022 10 16 0.00 0.00
2:54 pm 14:54 Partly Cloudy 87 30.6 58 14.4 37 37 W 10 17 30.18 1022 10 16 0.00 0.00
3:54 pm 15:54 Partly Cloudy 88 31.1 60 15.6 39 39 W 9 15 30.17 1022 10 16 0.00 0.00
4:54 pm 16:54 Partly Cloudy 87 30.6 60 15.6 40 40 VRB 5 7 30.16 1021 10 16 0.00 0.00
5:54 pm 17:54 Partly Cloudy 87 30.6 61 16.1 42 42 SSW 9 15 30.14 1021 10 16 0.00 0.00
6:54 pm 18:54 Partly Cloudy 84 28.9 65 18.3 53 53 SE 9 15 30.14 1021 10 16 0.00 0.00
7:54 pm 19:54 Partly Cloudy 80 26.7 64 17.8 58 58 SSE 8 13 30.15 1021 10 16 0.00 0.00
8:54 pm 20:54 Partly Cloudy 78 25.6 64 17.8 62 62 SSE 5 7 30.16 1021 10 16 0.00 0.00
9:54 pm 21:54 Mostly Clear 76 24.4 65 18.3 69 69 S 5 7 30.18 1022 10 16 0.00 0.00
10:54 pm 22:54 Mostly Clear 75 23.9 65 18.3 71 71 SW 3 6 30.19 1022 10 16 0.00 0.00
11:54 pm 23:54 Partly Cloudy 74 23.3 65 18.3 74 74 Calm 30.20 1023 10 16 0.00 0.00

Powered by AerisWeather